Regional Weather Roundup
Issued by NWS

Home | Current Version | Previous Version | Graphics & Text | Print | Product List | Glossary On
Versions: 1 2 3 4 5 6 7 8 9 10 11 12 13 14 15 16 17 18 19 20 21 22 23 24 25 26 27 28 29 30 31 32 33 34 35 36 37 38 39 40 41 42 43 44 45 46 47 48 49 50
000
ASUS43 KOAX 210510
RWRNE

WEATHER ROUNDUP FOR NEBRASKA
NATIONAL WEATHER SERVICE OMAHA NE
1100 PM CST SAT DEC 20 2014

NOTES: SATELLITE DATA IS BEING USED TO AUGMENT CLOUD COVER ABOVE
       12000 FEET.
       "FAIR" INDICATES FEW OR NO CLOUDS BELOW 12,000 FEET WITH NO
       SIGNIFICANT WEATHER AND/OR OBSTRUCTIONS TO VISIBILITY.

  * THESE STATIONS DO NOT REPORT WEATHER SUCH AS RAIN...SNOW OR FOG.

NEZ001>004-019>022-054>056-210600-
NEBRASKA PANHANDLE

CITY           SKY/WX    TMP DP  RH WIND       PRES   REMARKS
SCOTTSBLUFF    CLOUDY    35  26  69 W6        29.89F WCI  30
ALLIANCE       CLOUDY    22  19  89 W7        29.87F WCI  13
CHADRON        CLOUDY    29  24  82 SW6       29.85F WCI  23
KIMBALL        CLOUDY    36  25  65 W5        29.89F WCI  32
SIDNEY         CLOUDY    29  23  78 W8        29.91F WCI  21
$$

NEZ057>060-069>072-079>082-210600-
SOUTHWEST NEBRASKA

CITY           SKY/WX    TMP DP  RH WIND       PRES   REMARKS
NORTH PLATTE   MOCLDY    23  21  92 NW5       29.92F WCI  17
IMPERIAL       MOCLDY    30  25  81 SW8       29.93S WCI  22
LEXINGTON      CLEAR     27  25  93 N3        29.92F
MCCOOK         CLEAR     28  25  88 W8        29.93S WCI  20
OGALLALA       CLOUDY    27  26  94 W3        29.91F
$$

NEZ005>010-023>029-035>040-094-210600-
NORTH CENTRAL NEBRASKA

CITY           SKY/WX    TMP DP  RH WIND       PRES   REMARKS
VALENTINE      MOCLDY    27  25  92 W3        29.87F
AINSWORTH      PTCLDY    27  23  86 W8        29.87F WCI  18
BROKEN BOW     CLEAR     29  26  89 CALM      29.91F
O`NEILL        FOG       31  31 100 S6        29.90F VSB 1/2 WCI  26
THEDFORD       CLEAR     29  27  91 W3        29.89F
$$

NEZ041-046>049-061>064-073>077-083>087-210600-
SOUTH CENTRAL NEBRASKA

CITY           SKY/WX    TMP DP  RH WIND       PRES   REMARKS
GRAND ISLAND   MOCLDY    27  26  96 SE5       29.95S FOG     WCI  22
AURORA         FOG       32  32 100 S6        29.95S VSB 1/4 WCI  26
HASTINGS       FOG       30  28  92 S5        29.94S VSB 1/2 WCI  25
HEBRON         MOCLDY    38  35  89 SW13G18   29.98F WCI  30
HOLDREGE       CLEAR     34  30  86 SW7       29.92F WCI  28
KEARNEY *      CLEAR     28  25  86 S8        29.93S WCI  20
YORK           FOG       34  34 100 S5        29.96F VSB 1/4 WCI  30
$$

NEZ011>018-030>034-042>045-210600-
NORTHEAST NEBRASKA

CITY           SKY/WX    TMP DP  RH WIND       PRES   REMARKS
NORFOLK        FOG       32  32 100 S8        29.96F VSB 1/2 WCI  25
ALBION         FOG       32  31  95 S7        29.94F VSB 1/4 WCI  26
BLAIR          FOG       35  33  94 SE6       30.01S VSB 1/2 WCI  29
COLUMBUS *     CLOUDY    34  28  80 S6        29.99S VSB 1/4 WCI  29
FREMONT        FOG       35  35  99 SE6       30.01S VSB 1/2 WCI  30
TEKAMAH        CLOUDY    34  32  92 SE7       30.02F FOG     WCI  28
WAYNE          CLOUDY    32  32 100 S8        29.98F FOG     WCI  25
$$

NEZ050>053-065>068-078-088>093-210600-
SOUTHEAST NEBRASKA

CITY           SKY/WX    TMP DP  RH WIND       PRES   REMARKS
LINCOLN        CLOUDY    36  35  96 S6        30.01F FOG     WCI  31
OMAHA EPPLEY   FOG       34  34 100 SE10      30.04S VSB 1   WCI  26
BEATRICE       MOCLDY    37  36  95 S9        30.01S WCI  30
FALLS CITY     PTCLDY    35  33  92 S8        30.05F WCI  29
NEBRASKA CITY  CLOUDY    33  33 100 S7        30.03S FOG     WCI  27
PLATTSMOUTH    FOG       33  32  94 SE7       30.03S VSB 1/2 WCI  27
$$

NEZ044-045-051>053-067-210600-
OMAHA AREA

CITY           SKY/WX    TMP DP  RH WIND       PRES   REMARKS
OMAHA EPPLEY   FOG       34  34 100 SE10      30.04S VSB 1   WCI  26
BLAIR          FOG       35  33  94 SE6       30.01S VSB 1/2 WCI  29
FREMONT        FOG       35  35  99 SE6       30.01S VSB 1/2 WCI  30
MILLARD        CLOUDY    35  33  95 SE7       30.02F FOG     WCI  29
OFFUTT AFB     FOG       34  32  93 SE9       30.03S VSB 3/4 WCI  26
PLATTSMOUTH    FOG       33  32  94 SE7       30.03S VSB 1/2 WCI  27
WAHOO          FOG       35  33  92 SE6       30.00S VSB 1/4 WCI  30
$$



USA.gov is the U.S. government's official web portal to all federal, state and local government web resources and services.